Location: Marse
(42.1502°N, 110.9866°W)
Time: 17:32:54
(UTC+00:00)

QB50P2 - Pass Details

Date: 03 July 2022
Orbit: 590 x 605 km, 97.9° (Epoch: 18 August)

Event Time Altitude Azimuth Distance (km) Brightness Sun altitude
Rises 08:29:49 0° 17° (NNE) 2,862 ? -23.4°
Reaches altitude 10° 08:32:03 10° 22° (NNE) 1,956 ? -23.3°
Maximum altitude 08:36:13 53° 100° (E) 745 ? -23.0°
Enters shadow 08:36:33 51° 120° (ESE) 760 ? -23.0°
